Location: London
(51.5074°N, 0.1278°W)
Time: 20:20:40
(UTC+01:00)

Tiangong - Pass Details

Date: 30 September 2021
Orbit: 382 x 385 km, 41.5° (Epoch: 16 October)

Event Time Altitude Azimuth Distance (km) Brightness Sun altitude
Exits shadow 05:47:06 - 206° (SSW) 1,466 3.7 -12.1°
Reaches altitude 10° 05:47:26 10° 201° (SSW) 1,397 3.6 -12.0°
Maximum altitude 05:48:56 13° 172° (S) 1,243 3.6 -11.8°
Drops below altitude 10° 05:50:25 10° 144° (SE) 1,398 4.2 -11.6°
Sets 05:53:21 0° 114° (ESE) 2,250 6.0 -11.1°
